TimeCEST,TemperatureF,Dew PointF,Humidity,Sea Level PressureIn,VisibilityMPH,Wind Direction,Wind SpeedMPH,Gust SpeedMPH,PrecipitationIn,Events,Conditions,WindDirDegrees,DateUTC
12:00 AM,57.2,53.6,88,30.04,-9999.0,NNW,2.3,-,N/A,,Clear,330,2013-09-06 22:00:00
1:00 AM,55.4,51.8,88,30.04,-9999.0,Calm,Calm,-,N/A,,Clear,0,2013-09-06 23:00:00
2:00 AM,53.6,51.8,94,30.04,-9999.0,Calm,Calm,-,N/A,,Clear,0,2013-09-07 00:00:00
3:00 AM,55.4,53.6,94,30.04,-9999.0,Calm,Calm,-,N/A,,Clear,0,2013-09-07 01:00:00
4:00 AM,51.8,51.8,100,30.06,-9999.0,Variable,1.2,-,N/A,,Clear,0,2013-09-07 02:00:00
5:00 AM,51.8,51.8,100,30.06,-9999.0,Calm,Calm,-,N/A,,Clear,0,2013-09-07 03:00:00
6:00 AM,48.2,48.2,100,30.06,-9999.0,Calm,Calm,-,N/A,,Clear,0,2013-09-07 04:00:00
7:00 AM,50.0,50.0,100,30.09,-9999.0,Calm,Calm,-,N/A,,Clear,0,2013-09-07 05:00:00
8:00 AM,57.2,53.6,88,30.09,-9999.0,Calm,Calm,-,N/A,,Clear,0,2013-09-07 06:00:00
9:00 AM,62.6,53.6,72,30.09,-9999.0,Variable,2.3,-,N/A,,Clear,0,2013-09-07 07:00:00
10:00 AM,68.0,57.2,68,30.12,-9999.0,ESE,4.6,-,N/A,,Clear,110,2013-09-07 08:00:00
11:00 AM,71.6,53.6,53,30.12,-9999.0,ESE,6.9,-,N/A,,Clear,110,2013-09-07 09:00:00
12:00 PM,73.4,53.6,50,30.12,-9999.0,ESE,9.2,-,N/A,,Clear,120,2013-09-07 10:00:00
1:00 PM,75.2,51.8,44,30.09,-9999.0,SE,8.1,-,N/A,,Clear,130,2013-09-07 11:00:00
2:00 PM,77.0,50.0,39,30.09,-9999.0,SSE,9.2,-,N/A,,Clear,160,2013-09-07 12:00:00
3:00 PM,77.0,50.0,39,30.09,-9999.0,SE,8.1,-,N/A,,Clear,130,2013-09-07 13:00:00
4:00 PM,78.8,51.8,39,30.09,-9999.0,SE,6.9,-,N/A,,Clear,130,2013-09-07 14:00:00
5:00 PM,78.8,50.0,36,30.09,-9999.0,ESE,8.1,-,N/A,,Clear,120,2013-09-07 15:00:00
6:00 PM,77.0,50.0,39,30.09,-9999.0,ESE,6.9,-,N/A,,Clear,120,2013-09-07 16:00:00
7:00 PM,75.2,51.8,44,30.09,-9999.0,ESE,5.8,-,N/A,,Clear,120,2013-09-07 17:00:00
8:00 PM,71.6,53.6,53,30.12,-9999.0,SSE,3.5,-,N/A,,Clear,150,2013-09-07 18:00:00
9:00 PM,66.2,53.6,64,30.12,-9999.0,ESE,3.5,-,N/A,,Clear,110,2013-09-07 19:00:00
10:00 PM,64.4,53.6,68,30.12,-9999.0,SSE,6.9,-,N/A,,Clear,150,2013-09-07 20:00:00
11:00 PM,62.6,51.8,68,30.15,-9999.0,SSE,6.9,-,N/A,,Clear,150,2013-09-07 21:00:00